Regional Weather Roundup
Issued by NWS

Home | Current Version | Previous Version | Graphics & Text | Print | Product List | Glossary On
Versions: 1 2 3 4 5 6 7 8 9 10 11 12 13 14 15 16 17 18 19 20 21 22 23 24 25 26 27 28 29 30 31 32 33 34 35 36 37 38 39 40 41 42 43 44 45 46 47 48 49 50
000
ASUS45 KABQ 270201
RWRNM
WEATHER ROUNDUP FOR NEW MEXICO
NATIONAL WEATHER SERVICE ALBUQUERQUE NM
700 PM MST FRI DEC 26 2014

NOTE: "FAIR" MEANS FEW OR NO CLOUDS BELOW 12,000 FEET AGL WITH NO
       SIGNIFICANT WEATHER OR OBSTRUCTIONS TO VISION.

      THIS PRODUCT IS RELEASED AS TWO VERSIONS.  ONE VERSION NEAR
      THE TOP OF THE HOUR CONTAINING PRELIMINARY DATA FROM ALBUQUERQUE
      AND OTHER STATIONS.  A FINAL VERSION WITH ADDITIONAL DATA IS
      ISSUED ABOUT 10 MINUTES AFTER THE HOUR.

NMZ501-503-504-510>518-270300-
NORTHWEST PLATEAU/NORTHCENTRAL MOUNTAINS

CITY           SKY/WX    TMP DP  RH WIND       PRES   REMARKS
FARMINGTON     MOCLDY    22  15  75 SW8       29.97R WCI  12
LOS ALAMOS     PTCLDY    22   8  55 NW15G22   29.96R WCI   9
SANTA FE       PTCLDY    20   9  62 W6        29.96R WCI  12
TAOS           PTCLDY    14  10  85 SW7       29.94R WCI   4
ANGEL FIRE     FLURRIES  17  11  76 SW17      29.88R WCI   1

$$
NMZ402-403-502-505>509-270300-
WESTCENTRAL MOUNTAINS/SOUTHWEST MOUNTAINS

CITY           SKY/WX    TMP DP  RH WIND       PRES   REMARKS
GALLUP         PTCLDY    15  11  83 SW8       29.98R WCI   4
GRANTS         CLEAR     18  10  73 CALM      30.00R
SILVER CITY    CLEAR     32   9  37 N12       29.99R WCI  23

$$
NMZ407-409-411-412-270300-
SOUTHERN DESERTS

CITY           SKY/WX    TMP DP  RH WIND       PRES   REMARKS
LORDSBURG      FAIR      34  16  47 NW13      29.99R WCI  25
DEMING         PTCLDY    36  13  38 W6        29.97R WCI  31
HOLLOMAN AFB   MOCLDY    39  29  67 SE14      29.96R WCI  31
ALAMOGORDO     CLOUDY    39  28  65 S14G20    29.97R WCI  31
T OR C         CLEAR     36   5  27 N5        29.97R WCI  32

$$
NMZ519>523-270300-
CENTRAL VALLEYS/CENTRAL HIGHLANDS

CITY           SKY/WX    TMP DP  RH WIND       PRES   REMARKS
ALBUQUERQUE    PTCLDY    31  11  43 W6        30.01R WCI  25
DOUBLE EAGLE   PTCLDY    21   9  58 W8        30.00R WCI  12
MORIARTY ARPT  MOCLDY    10   6  83 NE5       30.00R WCI   2
CLINES CORNERS PTCLDY    10   5  80 W10       29.93R WCI  -4
BELEN          MOCLDY    24  10  57 SW3       30.02R
SOCORRO        MOCLDY    34   8  34 N8        30.01R WCI  27

$$
NMZ524>526-539-540-270300-
SOUTHCENTRAL MOUNTAINS

CITY           SKY/WX    TMP DP  RH WIND       PRES   REMARKS
RUIDOSO        MOCLDY    23   7  50 N8        29.99R WCI  14

$$
NMZ527>531-270300-
NORTHEAST HIGHLANDS/NORTHEAST PLAINS

CITY           SKY/WX    TMP DP  RH WIND       PRES   REMARKS
LAS VEGAS      FOG       15  13  91 NE7       29.94R VSB 1/2 WCI   5
RATON          CLOUDY    13  11  92 NW3       29.95R
CLAYTON        PTCLDY    20  16  84 NE3       30.02R

$$
NMZ532>537-270300-
EASTCENTRAL PLAINS

CITY           SKY/WX    TMP DP  RH WIND       PRES   REMARKS
TUCUMCARI      PTCLDY    22  19  89 NE7       30.06R WCI  13
CANNON AFB     PTCLDY    26  23  89 NE8       30.04R WCI  18
CLOVIS AIRPORT PTCLDY    25  19  80 N9        30.04R WCI  15

$$
NMZ028-029-538-270300-
SOUTHEAST PLAINS

CITY           SKY/WX    TMP DP  RH WIND       PRES   REMARKS
ROSWELL        CLOUDY    44  14  29 N13       30.00R
ARTESIA        CLOUDY    45  30  57 W7G17     29.99R
CARLSBAD       CLOUDY    47  28  47 W8        29.98R
HOBBS          MOCLDY    45  32  61 CALM      30.00R


$$



USA.gov is the U.S. government's official web portal to all federal, state and local government web resources and services.